Regional Weather Roundup
Issued by NWS Northern Indiana

Home | Current Version | Previous Version | Text Only | Print | Product List | Glossary Off
Versions: 1 2 3 4 5 6 7 8 9 10 11 12 13 14 15 16 17 18 19 20 21 22 23 24 25 26 27 28 29 30 31 32 33 34 35 36 37 38 39 40 41 42 43 44 45 46 47 48 49 50

000
ASUS43 KIWX 100700
RWRIWX

KIWX WEATHER ROUNDUP
NATIONAL WEATHER SERVICE NORTHERN INDIANA
200 AM EST SUN DEC 10 2017

NOTE: "FAIR" INDICATES FEW OR NO CLOUDS BELOW 12,000 FEET WITH NO
SIGNIFICANT WEATHER AND/OR OBSTRUCTIONS TO VISIBILITY.

* THESE STATIONS ARE NOT UNDER NWS QUALITY CONTROL. THEY ALSO MAY NOT
  REPORT WEATHER SUCH AS PRECIPITATION OR FOG.

INZ001>027-100800-
NORTHERN INDIANA

CITY           SKY/WX    TMP DP  RH WIND       PRES   REMARKS
LAPORTE*       PTCLDY    18  12  76 SW8       30.03F WCI   8
KNOX*          CLEAR     18  12  79 W8        30.05F WCI   7
SOUTH BEND     CLOUDY    25  20  81 W10       30.01F WCI  15
GOSHEN         MOCLDY    24  19  81 W10       30.00S WCI  14
MONTICELLO*    PTCLDY    19  13  78 SW6       30.07F WCI  10
WARSAW*        MOCLDY    23  19  86 W8        30.02S WCI  14
AUBURN*        CLOUDY    28  25  86 W9        30.00R WCI  20
FORT WAYNE     FLURRIES  26  21  81 W17       30.02R WCI  13
PERU/GRISSOM   PTCLDY    18  13  81 W8        30.05S WCI   7

$$
INZ028>050-100800-
CENTRAL INDIANA

CITY           SKY/WX    TMP DP  RH WIND       PRES   REMARKS
LAFAYETTE      PTCLDY    18  14  84 SW6       30.10F WCI  10
KOKOMO*        CLEAR     19  14  81 W9        30.06F WCI   8
MUNCIE*        CLOUDY    25  16  68 W12       30.06R WCI  14
INDIANAPOLIS   CLEAR     20  14  77 W9        30.10S WCI   9

$$
MIZ043>046-050>051-056>058-064>065-071>073-077>080-100800-
SOUTHWEST LOWER MICHIGAN

CITY           SKY/WX    TMP DP  RH WIND       PRES   REMARKS
BATTLE CREEK   CLOUDY    25  23  92 W7        29.95F WCI  17
BENTON HARBOR  CLOUDY    27  18  69 W14       30.00F WCI  16
COLDWATER*     LGT SNOW  25  24  94 W6        29.96S WCI  18
HILLSDALE*     FLURRIES  27  23  86 W6        29.93F WCI  20
HOLLAND        CLOUDY    28  19  69 W10       29.96F WCI  19
GRAND RAPIDS   CLOUDY    25  23  92 SW8       29.94S WCI  16
KALAMAZOO      CLOUDY    26  23  88 W6        29.97F WCI  19
STURGIS*       CLOUDY    26  23  90 W6        29.97S WCI  19
THREE RIVERS*  CLOUDY    28  24  87 W5        29.97F WCI  23

$$
OHZ001>008-015>018-024>025-100800-
NORTHWEST OHIO

CITY           SKY/WX    TMP DP  RH WIND       PRES   REMARKS
DEFIANCE       CLOUDY    27  21  78 W6        29.99S WCI  20
FINDLAY        CLOUDY    28  20  71 W12       29.97R WCI  18
TOLEDO EXPRESS CLEAR     24  22  91 W8        29.96S WCI  15
TOLEDO METCALF PTCLDY    25  19  78 W9        29.97R WCI  15
LIMA           CLOUDY    26  21  81 W9        29.99R WCI  17

$$
AND FOR LAKE MICHIGAN COASTAL AND OPEN LAKE BUOY OBSERVATIONS

STATION/POSITION TEMP    WIND        PRES    VSBY  WAVE
                 AIR SEA DIR/SP/G                  HT/PER
                 (F)     (DEG/KT/KT) (MB)    (MI)  (FT/S)
CALUMET HARBOR    21     220/  5/  7 1016.8F
MICHIGAN CITY     26     250/ 16/ 18   N/A
BURNS HARBOR      24     220/  9/ 16 1017.9F
SAINT JOSEPH      29     280/ 11/ 16 1016.6

$$
&&




USA.gov is the U.S. government's official web portal to all federal, state and local government web resources and services.